SCP
0 0 0 0 0 0 0 0 0 0 0 0 0 0 0 0 0 0 0 0 0 0 -0 -0 -0 -0 -0 -0 0 0 0 0
0 0 0 0 0 0 0 0 0 0 0 0 0 0 0 0 0 0 0 0 0 0 -0 -0 -0 -0 -0 0 0 0 0 0
0 0 0 0 0 0 0 0 0 0 0 0 0 0 0 0 0 0 0 0 0 -0 -0 0 -0 -0 -0 -0 -0 0 0 0
0 0 0 0 0 0 0 0 0 0 0 0 0 0 0 0 0 0 0 0 0 0 0 0 0 0 0 0 0 0 0 0
0 0 0 0 0 0 0 0 0 0 0 0 0 0 0 0 0 0 0 0 0 0 0 0 0 0 0 0 0 0 0 0
0 0 0 0 0 0 0 0 0 0 0 0 0 0 0 0 0 0 0 0 0 0 0 0 0 0 0 0 0 0 0 0
0 0 0 0 0 0 0 0 0 0 0 0 0 0 0 0 0 0 0 0 0 0 0 0 0 0 0 0 0 0 0 0
0 0 0 0 0 0 0 0 0 0 0 0 0 0 0 0 0 0 0 0 0 0 0 0 0 0 0 0 0 0 0 0
0 0 0 0 0 0 0 0 0 0 0 0 0 0 0 0 0 0 0 0 0 0 0 0 0 0 0 0 0 0 0 0
0 0 0 0 0 0 0 0 0 0 0 0 0 0 0 0 0 0 0 0 0 0 0 0 0 0 0 0 0 0 0 0
0 0 0 0 0 0 0 0 0 0 0 0 0 0 0 0 0 0 0 0 0 0 0 0 0 0 0 0 0 0 0 0
0 0 0 0 0 0 0 0 0 0 0 0 0 0 0 0 0 0 0 0 0 0 0 0 0 0 0 0 0 0 0 0
0 0 0 0 0 0 0 0 0 0 0 0 0 0 0 0 0 0 0 0 0 0 0 0 0 0 0 0 0 0 0 0
0 0 0 0 0 0 0 0 0 0 0 0 0 0 0 0 0 0 0 0 0 0 0 0 0 0 0 0 0 0 0 0
0 0 0 0 0 0 0 0 0 0 0 0 0 0 0 0 0 0 0 0 0 0 0 0 0 0 0 0 0 0 0 0
0 0 0 0 0 0 0 0 0 0 0 0 0 0 0 0 0 0 0 0 0 0 0 0 0 0 0 0 0 0 0 0
0 0 0 0 0 0 0 0 0 0 0 0 0 0 0 0 0 0 0 0 0 0 0 0 0 0 0 0 0 0 0 0
0 0 0 0 0 0 0 0 0 0 0 0 0 0 0 0 0 0 0 0 0 0 0 0 0 0 0 -0 -0 -0 -0 0
0 0 0 0 0 0 0 0 0 0 0 0 0 0 0 0 0 0 0 0 0 0 0 0 0 0 0 0 -0 -0 -0 -0
0 0 0 0 0 0 0 0 0 0 0 0 0 0 0 0 0 0 0 0 0 0 0 0 0 0 0 0 0 0 -0 -0
Wind_Speed_500mb
65 66 66 65 62 60 54 48 41 36 31 24 16 14 13 8 3 12 20 28 36 42 48 54 58 60 63 67 67 65 65 66
73 72 70 69 66 60 56 49 41 36 30 24 20 17 10 8 12 17 24 32 40 47 51 53 56 60 64 66 68 69 70 71
73 73 73 75 72 65 57 50 42 38 30 24 23 17 14 13 11 17 25 33 42 45 44 46 49 55 61 64 65 68 72 76
81 81 80 74 61 57 57 51 43 34 30 29 23 17 12 7 13 19 28 38 39 43 40 39 50 58 61 64 65 66 67 70
89 76 69 71 67 59 54 45 40 35 31 23 16 14 9 9 11 17 27 29 35 37 38 46 59 65 68 69 66 66 67 66
76 81 69 63 54 52 50 44 39 31 25 17 14 11 9 10 13 24 31 38 39 42 45 56 65 70 74 71 68 66 63 63
75 73 61 57 56 52 43 37 29 22 19 17 15 13 12 16 23 36 41 43 41 45 52 61 68 74 76 69 66 59 57 57
74 72 57 56 50 41 34 21 13 21 18 16 23 20 22 27 36 41 49 49 47 49 57 64 71 74 73 71 65 55 52 52
53 57 61 56 47 36 17 5 12 13 14 9 34 29 27 32 37 49 52 48 51 57 61 67 72 73 72 66 59 55 53 46
48 49 58 50 40 25 3 3 10 10 24 21 36 33 34 37 47 50 50 52 53 56 62 69 69 71 67 57 51 50 47 42
50 56 54 43 29 14 13 10 19 30 19 30 34 34 43 43 47 48 48 49 54 60 67 68 67 65 57 51 45 42 47 46
49 52 46 41 22 9 45 35 35 20 22 34 34 40 46 49 51 49 48 52 60 64 65 67 67 55 50 48 44 45 44 43
48 48 36 28 12 22 19 23 33 31 27 38 42 46 52 53 53 55 56 59 60 62 64 66 56 48 47 48 41 39 35 37
33 30 25 14 15 19 26 29 30 28 33 42 45 52 56 56 54 56 61 67 62 60 56 50 42 36 37 36 36 34 33 32
24 11 3 7 6 10 13 15 20 27 39 44 45 45 46 50 57 63 65 57 44 40 41 33 28 27 27 33 39 39 34 32
22 28 26 21 17 9 11 16 26 39 46 47 48 51 53 55 55 48 39 30 28 32 29 24 28 32 39 38 42 37 35 32
34 27 21 19 18 23 30 35 39 43 45 45 44 44 43 37 31 28 25 24 27 27 23 27 30 29 31 36 41 38 35 30
28 19 15 25 33 38 42 44 40 34 31 30 29 28 24 23 22 24 24 25 26 28 25 25 26 28 25 32 40 38 27 25
13 12 20 26 34 40 41 38 31 26 23 21 18 19 22 24 26 26 27 25 28 27 24 24 24 27 24 24 33 39 28 25
18 16 19 32 39 43 41 34 25 20 15 16 19 20 23 24 24 23 24 26 25 25 24 24 21 25 28 23 25 32 34 36
Wind_Direction_500mb
180 179 176 173 170 172 175 179 178 178 173 170 173 182 184 186 286 336 351 355 352 349 345 341 339 339 337 334 331 327 324 321
187 186 182 178 181 182 180 180 179 177 180 179 190 197 213 275 309 335 348 348 349 346 344 343 342 339 335 331 327 322 318 316
193 193 188 186 186 184 182 180 183 185 192 201 212 217 237 258 305 337 346 349 349 347 342 340 338 337 332 326 320 314 310 308
197 198 197 191 187 184 181 184 191 197 209 218 217 225 233 292 326 337 347 349 346 339 335 336 336 335 332 328 323 316 311 308
206 201 192 195 195 194 189 187 196 207 218 221 224 222 242 281 321 338 341 344 338 334 329 331 336 338 335 331 327 321 315 312
206 209 205 195 190 183 176 182 192 204 222 222 224 233 267 296 314 333 336 335 333 332 330 329 335 337 334 329 325 321 317 313
208 207 208 190 180 175 177 183 193 213 238 247 252 260 280 301 318 322 326 328 326 327 330 331 333 332 332 326 322 320 318 317
209 208 188 174 172 172 176 178 244 251 246 266 268 275 288 297 302 315 325 326 323 325 329 330 328 328 327 324 321 319 319 319
205 203 178 174 170 175 160 284 221 229 261 288 275 274 279 293 311 320 321 322 322 321 323 323 323 322 323 323 320 319 322 327
200 183 175 172 173 162 313 111 194 283 285 293 261 277 297 308 312 320 318 314 312 315 320 320 320 319 322 320 318 319 323 332
173 169 168 165 163 202 94 8 312 273 279 266 281 293 300 301 312 311 305 307 313 317 317 318 319 321 322 322 321 319 324 316
168 169 169 171 155 355 323 263 285 261 254 264 279 290 292 301 306 304 305 309 311 313 316 319 320 319 321 323 322 317 318 314
170 171 177 175 221 293 311 253 269 251 260 272 282 288 293 296 299 299 299 301 309 313 316 318 315 317 318 322 323 321 322 318
153 164 181 223 260 289 253 248 255 263 273 281 289 294 289 290 290 295 301 308 313 318 319 318 318 321 327 334 336 336 329 325
127 107 273 267 254 229 235 253 268 282 288 293 288 286 289 297 303 307 310 312 323 337 342 351 355 347 340 337 339 330 327 327
110 109 108 99 86 52 11 332 305 291 289 288 289 293 298 305 311 315 319 327 328 334 346 7 350 336 338 339 343 340 333 324
106 93 71 43 11 355 334 320 311 302 297 297 301 306 312 319 321 325 334 330 331 336 331 341 346 346 348 357 350 345 335 337
106 85 34 354 333 336 331 324 316 310 311 314 325 333 341 343 340 331 329 331 331 336 335 336 339 346 353 358 357 352 356 6
94 25 330 321 329 332 332 336 333 333 337 341 355 354 345 339 333 331 331 333 326 327 329 333 339 348 349 355 358 7 10 359
2 349 343 335 340 344 342 341 340 345 2 351 343 343 343 344 340 339 337 336 331 324 327 333 334 343 345 343 357 6 11 19
Wind_Speed_850mb
65 66 66 65 62 60 54 48 41 36 31 24 16 14 13 8 3 12 20 28 36 42 48 54 58 60 63 67 67 65 65 66
73 72 70 69 66 60 56 49 41 36 30 24 20 17 10 8 12 17 24 32 40 47 51 53 56 60 64 66 68 69 70 71
73 73 73 75 72 65 57 50 42 38 30 24 23 17 14 13 11 17 25 33 42 45 44 46 49 55 61 64 65 68 72 76
81 81 80 74 61 57 57 51 43 34 30 29 23 17 12 7 13 19 28 38 39 43 40 39 50 58 61 64 65 66 67 70
89 76 69 71 67 59 54 45 40 35 31 23 16 14 9 9 11 17 27 29 35 37 38 46 59 65 68 69 66 66 67 66
76 81 69 63 54 52 50 44 39 31 25 17 14 11 9 10 13 24 31 38 39 42 45 56 65 70 74 71 68 66 63 63
75 73 61 57 56 52 43 37 29 22 19 17 15 13 12 16 23 36 41 43 41 45 52 61 68 74 76 69 66 59 57 57
74 72 57 56 50 41 34 21 13 21 18 16 23 20 22 27 36 41 49 49 47 49 57 64 71 74 73 71 65 55 52 52
53 57 61 56 47 36 17 5 12 13 14 9 34 29 27 32 37 49 52 48 51 57 61 67 72 73 72 66 59 55 53 46
48 49 58 50 40 25 3 3 10 10 24 21 36 33 34 37 47 50 50 52 53 56 62 69 69 71 67 57 51 50 47 42
50 56 54 43 29 14 13 10 19 30 19 30 34 34 43 43 47 48 48 49 54 60 67 68 67 65 57 51 45 42 47 46
49 52 46 41 22 9 45 35 35 20 22 34 34 40 46 49 51 49 48 52 60 64 65 67 67 55 50 48 44 45 44 43
48 48 36 28 12 22 19 23 33 31 27 38 42 46 52 53 53 55 56 59 60 62 64 66 56 48 47 48 41 39 35 37
33 30 25 14 15 19 26 29 30 28 33 42 45 52 56 56 54 56 61 67 62 60 56 50 42 36 37 36 36 34 33 32
24 11 3 7 6 10 13 15 20 27 39 44 45 45 46 50 57 63 65 57 44 40 41 33 28 27 27 33 39 39 34 32
22 28 26 21 17 9 11 16 26 39 46 47 48 51 53 55 55 48 39 30 28 32 29 24 28 32 39 38 42 37 35 32
34 27 21 19 18 23 30 35 39 43 45 45 44 44 43 37 31 28 25 24 27 27 23 27 30 29 31 36 41 38 35 30
28 19 15 25 33 38 42 44 40 34 31 30 29 28 24 23 22 24 24 25 26 28 25 25 26 28 25 32 40 38 27 25
13 12 20 26 34 40 41 38 31 26 23 21 18 19 22 24 26 26 27 25 28 27 24 24 24 27 24 24 33 39 28 25
18 16 19 32 39 43 41 34 25 20 15 16 19 20 23 24 24 23 24 26 25 25 24 24 21 25 28 23 25 32 34 36
Wind_Direction_850mb
180 179 176 173 170 172 175 179 178 178 173 170 173 182 184 186 286 336 351 355 352 349 345 341 339 339 337 334 331 327 324 321
187 186 182 178 181 182 180 180 179 177 180 179 190 197 213 275 309 335 348 348 349 346 344 343 342 339 335 331 327 322 318 316
193 193 188 186 186 184 182 180 183 185 192 201 212 217 237 258 305 337 346 349 349 347 342 340 338 337 332 326 320 314 310 308
197 198 197 191 187 184 181 184 191 197 209 218 217 225 233 292 326 337 347 349 346 339 335 336 336 335 332 328 323 316 311 308
206 201 192 195 195 194 189 187 196 207 218 221 224 222 242 281 321 338 341 344 338 334 329 331 336 338 335 331 327 321 315 312
206 209 205 195 190 183 176 182 192 204 222 222 224 233 267 296 314 333 336 335 333 332 330 329 335 337 334 329 325 321 317 313
208 207 208 190 180 175 177 183 193 213 238 247 252 260 280 301 318 322 326 328 326 327 330 331 333 332 332 326 322 320 318 317
209 208 188 174 172 172 176 178 244 251 246 266 268 275 288 297 302 315 325 326 323 325 329 330 328 328 327 324 321 319 319 319
205 203 178 174 170 175 160 284 221 229 261 288 275 274 279 293 311 320 321 322 322 321 323 323 323 322 323 323 320 319 322 327
200 183 175 172 173 162 313 111 194 283 285 293 261 277 297 308 312 320 318 314 312 315 320 320 320 319 322 320 318 319 323 332
173 169 168 165 163 202 94 8 312 273 279 266 281 293 300 301 312 311 305 307 313 317 317 318 319 321 322 322 321 319 324 316
168 169 169 171 155 355 323 263 285 261 254 264 279 290 292 301 306 304 305 309 311 313 316 319 320 319 321 323 322 317 318 314
170 171 177 175 221 293 311 253 269 251 260 272 282 288 293 296 299 299 299 301 309 313 316 318 315 317 318 322 323 321 322 318
153 164 181 223 260 289 253 248 255 263 273 281 289 294 289 290 290 295 301 308 313 318 319 318 318 321 327 334 336 336 329 325
127 107 273 267 254 229 235 253 268 282 288 293 288 286 289 297 303 307 310 312 323 337 342 351 355 347 340 337 339 330 327 327
110 109 108 99 86 52 11 332 305 291 289 288 289 293 298 305 311 315 319 327 328 334 346 7 350 336 338 339 343 340 333 324
106 93 71 43 11 355 334 320 311 302 297 297 301 306 312 319 321 325 334 330 331 336 331 341 346 346 348 357 350 345 335 337
106 85 34 354 333 336 331 324 316 310 311 314 325 333 341 343 340 331 329 331 331 336 335 336 339 346 353 358 357 352 356 6
94 25 330 321 329 332 332 336 333 333 337 341 355 354 345 339 333 331 331 333 326 327 329 333 339 348 349 355 358 7 10 359
2 349 343 335 340 344 342 341 340 345 2 351 343 343 343 344 340 339 337 336 331 324 327 333 334 343 345 343 357 6 11 19